YAOGAN-43 01C

Last updated on Mon Sep 16 2024 00:02:03 GMT+0000 (Coordinated Universal Time)

1 60460U 24148C 24258.92768084 .00001829 00000+0 79266-4 0 9993 2 60460 35.0025 229.1970 0007257 191.4485 168.6065 15.22193558 4463
UTC large
Height (km)
Speed (km/s)
/
Latitude / Longitude
Inclination (degrees)
Orbital Period (minutes)
Azimuth
Elevation
Range (km)
Doppler Factor

Next 0 passes for location: London (51.5072 / 0.1276)

Sorry there are no passes over London.